Weather History for Scottsdale, AZ

Change the Weather History Date:

Friday, August 16, 2013

  Actual Average Record
Temperature  
Mean Temperature 98 °F -  
Max Temperature 109 °F 99 °F 109 °F (2013)
Min Temperature 88 °F 79 °F 68 °F (1997)
Cooling Degree Days 34    
Growing Degree Days 48 (Base 50)    
Moisture  
Dew Point 54 °F    
Average Humidity 23    
Maximum Humidity 35    
Minimum Humidity 13    
Precipitation  
Precipitation 0.00 in - - ()
Sea Level Pressure  
Sea Level Pressure 29.79 in    
Wind  
Wind Speed 3 mph (SSE)    
Max Wind Speed 15 mph    
Max Gust Speed -    
Visibility 10 miles    
Events      
Averages and records for this station are not official NWS values.
T = Trace of Precipitation, MM = Missing Value Source: NWS Daily Summary

Daily Weather History Graph

Daily Weather History Graph

Search for Another Location

Airport:

Trip Planner

Search our weather history database for the weather conditions in past years. The results will help you decide how hot, cold, wet, or windy it might be!

Date:

Astronomy

Aug. 16, 2013 Rise Set
Actual Time 5:50 AM MST 7:12 PM MST
Civil Twilight 5:24 AM MST 7:38 PM MST
Nautical Twilight 4:53 AM MST 8:09 PM MST
Astronomical Twilight 4:20 AM MST 8:42 PM MST
Moon 3:29 PM MST (8/16) 1:02 AM MST (8/16)
Length of Visible Light 14h 14m
Length of Day
13h 21m
Waxing Gibbous, 76% of the Moon is Illuminated
Aug 16
Waxing Gibbous
Aug 20
Full
Aug 28
Last Quarter
Sep 5
New
Sep 12
First Quarter

Hourly Weather History & Observations

Time (MST) Temp. Heat Index Dew Point Humidity Pressure Visibility Wind Dir Wind Speed Gust Speed Precip Events Conditions
12:53 AM 91.0 °F 89.7 °F 57.0 °F 32% 29.78 in 10.0 mi Calm Calm - N/A   Clear
1:53 AM 91.9 °F 90.0 °F 55.0 °F 29% 29.78 in 10.0 mi West 4.6 mph - N/A   Clear
2:53 AM 91.9 °F 90.0 °F 55.0 °F 29% 29.78 in 10.0 mi Calm Calm - N/A   Clear
3:53 AM 89.1 °F 87.3 °F 55.9 °F 32% 29.78 in 10.0 mi Calm Calm - N/A   Clear
4:53 AM 89.1 °F 87.7 °F 57.0 °F 34% 29.79 in 10.0 mi WNW 3.5 mph - N/A   Clear
5:53 AM 88.0 °F 86.7 °F 57.0 °F 35% 29.81 in 10.0 mi Calm Calm - N/A   Clear
6:53 AM 90.0 °F 88.6 °F 57.0 °F 33% 29.82 in 10.0 mi Calm Calm - N/A   Clear
7:53 AM 93.9 °F 93.2 °F 59.0 °F 31% 29.83 in 10.0 mi Calm Calm - N/A   Clear
8:53 AM 99.0 °F 96.5 °F 53.1 °F 21% 29.84 in 10.0 mi SE 5.8 mph - N/A   Clear
9:53 AM 100.0 °F 97.9 °F 53.1 °F 21% 29.85 in 10.0 mi SE 6.9 mph - N/A   Clear
10:53 AM 100.9 °F 99.1 °F 54.0 °F 21% 29.84 in 10.0 mi SSE 5.8 mph - N/A   Clear
11:53 AM 104.0 °F 102.3 °F 54.0 °F 19% 29.82 in 10.0 mi South 5.8 mph - N/A   Clear
12:53 PM 106.0 °F 104.5 °F 54.0 °F 18% 29.80 in 10.0 mi Variable 6.9 mph - N/A   Clear
1:53 PM 108.0 °F 105.9 °F 53.1 °F 16% 29.77 in 10.0 mi SSW 8.1 mph - N/A   Clear
2:53 PM 109.0 °F - 51.1 °F 15% 29.74 in 10.0 mi West 8.1 mph - N/A   Clear
3:53 PM 108.0 °F - 50.0 °F 15% 29.73 in 10.0 mi Variable 4.6 mph - N/A   Clear
4:53 PM 108.0 °F - 48.0 °F 13% 29.73 in 10.0 mi Calm Calm - N/A   Clear
5:14 PM 109.4 °F - 48.2 °F 13% 29.81 in 10.0 mi Calm Calm - N/A   Clear
5:53 PM 107.1 °F - 52.0 °F 16% 29.72 in 10.0 mi NE 15.0 mph - N/A   Clear
6:53 PM 105.1 °F - 52.0 °F 17% 29.73 in 10.0 mi NNE 12.7 mph - N/A   Clear
7:53 PM 102.9 °F 100.9 °F 53.1 °F 19% 29.75 in 10.0 mi Calm Calm - N/A   Clear
8:53 PM 102.0 °F - 52.0 °F 19% 29.77 in 10.0 mi Calm Calm - N/A   Clear
9:53 PM 98.1 °F 96.4 °F 55.9 °F 24% 29.81 in 10.0 mi SE 5.8 mph - N/A   Clear
10:53 PM 97.0 °F 95.7 °F 57.0 °F 26% 29.83 in 10.0 mi SSE 6.9 mph - N/A   Clear
11:53 PM 93.9 °F 92.9 °F 57.9 °F 30% 29.83 in 10.0 mi SE 4.6 mph - N/A   Clear